Regional Weather Roundup
Issued by NWS

Home | Current Version | Previous Version | Graphics & Text | Print | Product List | Glossary Off
Versions: 1 2 3 4 5 6 7 8 9 10 11 12 13 14 15 16 17 18 19 20 21 22 23 24 25 26 27 28 29 30 31 32 33 34 35 36 37 38 39 40 41 42 43 44 45 46 47 48 49 50

000
ASUS43 KIND 211609
RWRIN

WEATHER ROUNDUP FOR INDIANA
NATIONAL WEATHER SERVICE INDIANAPOLIS IN
1200 PM EDT SUN SEP 21 2014

NOTE: "FAIR" INDICATES FEW OR NO CLOUDS BELOW 12,000 FEET WITH NO
SIGNIFICANT WEATHER AND/OR OBSTRUCTIONS TO VISIBILITY.

* - STATION DOES NOT REPORT WEATHER SUCH AS PRECIPITATION OR FOG.

+ - STATION NOT QUALITY CONTROLLED BY THE NATIONAL WEATHER SERVICE.
    USE DATA WITH CAUTION...ESPECIALLY DEWPOINT AND RELATIVE
    HUMIDITY OBSERVATIONS.

INZ001>003-010>013-019-020-211700-
NORTHWEST INDIANA

CITY           SKY/WX    TMP DP  RH WIND       PRES   REMARKS
GARY /AIRPORT/ CLOUDY    63  50  63 W17G29    29.87R
KNOX *+        CLOUDY    63  50  62 NW15G21   29.85R
LA PORTE +     CLOUDY    59  50  71 NW14G23   29.85R
MICHIGAN CITY+ CLOUDY    59  48  67 W16G23    29.85R
MONTICELLO +   PTSUNNY   65  53  65 W17       29.87R
RENSSELAER +   PTSUNNY   64  54  68 W15G21    29.89R
VALPARAISO     CLOUDY    61  49  64 NW17G28   29.86R

$$

LMZ046-743>745-211700-
SOUTHERN LAKE MICHIGAN

STATION/POSITION TIME  TEMP WIND        PRES
                       AIR  DIR/SP/G
                 (UTC) (F)  (DEG/KT/KT) (MB)
MICHIGAN CITY    1600   60  270/ 28/ 33   N/A

$$

INZ004-005-014>016-021>024-211700-
NORTH CENTRAL INDIANA

CITY           SKY/WX    TMP DP  RH WIND       PRES   REMARKS
GOSHEN         CLOUDY   N/A N/A N/A W21G29    29.80R
LOGANSPORT +   MOSUNNY   64  50  59 NW17G23   29.87R
PERU/GRISSOM   MOSUNNY   66  55  66 NW25G31   29.84S
ROCHESTER +    PTSUNNY   64  52  63 W13G23    29.85R
SOUTH BEND     CLOUDY    61  50  67 NW20G31   29.82R
WARSAW +       CLOUDY    61  52  72 W20       29.81S

$$

INZ006>009-017-018-025>027-211700-
NORTHEAST INDIANA

CITY           SKY/WX    TMP DP  RH WIND       PRES   REMARKS
ANGOLA *+      CLOUDY    63  52  67 W14       29.77R
AUBURN +       MOSUNNY   64  50  59 W13G21    29.79S
FORT WAYNE     PTSUNNY   66  52  60 W20G30    29.80S
HUNTINGTON +   PTSUNNY   65  53  63 W15G28    29.82R

$$

INZ028-029-035-036-043>045-051>053-211700-
WEST CENTRAL INDIANA

CITY           SKY/WX    TMP DP  RH WIND       PRES   REMARKS
GREENCASTLE +  SUNNY     68  52  56 W8G18     29.93R
LAFAYETTE      SUNNY     66  53  63 W20G28    29.88R
TERRE HAUTE    SUNNY     71  51  49 NW9G25    29.95R

$$

INZ030>032-037>040-046>048-054>057-064-065-211700-
CENTRAL INDIANA

CITY           SKY/WX    TMP DP  RH WIND       PRES   REMARKS
CP ATTERBURY + SUNNY     70  50  49 W10       29.91S
FRANKFORT +    SUNNY     69  55  60 W18G25    29.89S
INDIANAPOLIS   MOSUNNY   70  50  49 W22G29    29.90R
-EAGLE CREEK   SUNNY     69  49  48 W17G23    29.89S
KOKOMO *+      SUNNY     66  52  59 W22G30    29.85S
MARION +       SUNNY     68  49  51 W17G30    29.85S
MT COMFORT *+  SUNNY     70  39  32 W18G29    29.89S
SHELBYVILLE    SUNNY     72  50  45 W13       29.89S
ZIONSVILLE +   SUNNY     69  51  52 W16G24    29.90S

$$

INZ033-034-041-042-049-050-058-059-211700-
EAST CENTRAL INDIANA

CITY           SKY/WX    TMP DP  RH WIND       PRES   REMARKS
MUNCIE         SUNNY     69  50  50 W16G23    29.85S

$$

INZ060-061-067>069-081>083-085>088-211700-
SOUTHWEST INDIANA

CITY           SKY/WX    TMP DP  RH WIND       PRES   REMARKS
EVANSVILLE     SUNNY     73  54  51 N12G21    29.98R
WASHINGTON +   SUNNY     73  53  49 NW10G21   29.95S

$$

INZ062-063-066-070>080-084-089>092-211700-
SOUTH CENTRAL AND SOUTHEAST INDIANA

CITY           SKY/WX    TMP DP  RH WIND       PRES   REMARKS
BLOOMINGTON    SUNNY     70  50  49 NW14G22   29.94S

$$




USA.gov is the U.S. government's official web portal to all federal, state and local government web resources and services.